QPF
0.00 0.00 0.00 0.00 0.00 0.00 0.00 0.00 0.00 0.00 0.00 0.01 0.03 0.09 0.23 0.39 0.34 0.16 0.06 0.03 0.01 0.02 0.03 0.04 0.05 0.07 0.07 0.06 0.05 0.04 0.03 0.03 0.02 0.01 0.01 0.01 0.00 0.00 0.01 0.01 0.01 0.01 0.01 0.01
0.00 0.00 0.00 0.00 0.00 0.00 0.00 0.00 0.00 0.00 0.00 0.00 0.01 0.03 0.10 0.18 0.18 0.11 0.06 0.03 0.02 0.02 0.03 0.06 0.09 0.11 0.12 0.12 0.10 0.07 0.04 0.03 0.02 0.01 0.01 0.01 0.01 0.01 0.01 0.01 0.01 0.00 0.00 0.00
0.00 0.00 0.00 0.00 0.00 0.00 0.00 0.00 0.00 0.01 0.02 0.01 0.02 0.03 0.05 0.08 0.10 0.08 0.05 0.03 0.02 0.02 0.04 0.09 0.13 0.17 0.18 0.14 0.09 0.05 0.03 0.02 0.01 0.01 0.01 0.01 0.01 0.01 0.00 0.00 0.00 0.00 0.00 0.00
0.00 0.00 0.00 0.00 0.00 0.00 0.00 0.00 0.00 0.01 0.01 0.01 0.01 0.02 0.02 0.03 0.05 0.05 0.03 0.02 0.02 0.03 0.07 0.13 0.18 0.18 0.14 0.08 0.05 0.03 0.02 0.02 0.01 0.01 0.01 0.01 0.00 0.00 0.00 0.00 0.00 0.00 0.00 0.00
0.00 0.00 0.00 0.00 0.00 0.00 0.00 0.01 0.00 0.00 0.00 0.00 0.00 0.01 0.02 0.01 0.01 0.03 0.04 0.04 0.06 0.08 0.12 0.17 0.19 0.15 0.10 0.06 0.03 0.02 0.02 0.01 0.01 0.00 0.00 0.00 0.00 0.00 0.00 0.00 0.00 0.00 0.00 0.00
0.00 0.01 0.01 0.01 0.00 0.00 0.00 0.02 0.01 0.00 0.00 0.00 0.01 0.04 0.03 0.00 0.00 0.01 0.03 0.05 0.08 0.10 0.12 0.14 0.12 0.09 0.06 0.04 0.02 0.02 0.01 0.01 0.00 0.00 0.00 0.00 0.00 0.00 0.00 0.00 0.00 0.00 0.00 0.01
0.01 0.03 0.02 0.01 0.00 0.00 0.01 0.04 0.01 0.00 0.02 0.03 0.03 0.02 0.01 0.00 0.00 0.01 0.03 0.04 0.06 0.08 0.09 0.08 0.06 0.04 0.03 0.02 0.02 0.01 0.00 0.00 0.00 0.00 0.00 0.00 0.00 0.00 0.00 0.00 0.00 0.00 0.01 0.01
0.05 0.06 0.06 0.02 0.00 0.00 0.02 0.01 0.00 0.01 0.03 0.04 0.02 0.00 0.00 0.00 0.01 0.01 0.03 0.05 0.06 0.06 0.05 0.04 0.03 0.02 0.02 0.01 0.01 0.00 0.00 0.00 0.00 0.00 0.00 0.00 0.00 0.00 0.00 0.00 0.00 0.00 0.01 0.01
0.06 0.06 0.04 0.00 0.00 0.00 0.00 0.00 0.00 0.01 0.03 0.04 0.01 0.00 0.00 0.01 0.01 0.02 0.03 0.04 0.03 0.03 0.02 0.02 0.02 0.02 0.01 0.00 0.00 0.00 0.00 0.00 0.00 0.00 0.00 0.00 0.00 0.00 0.00 0.00 0.00 0.00 0.01 0.01
0.00 0.00 0.00 0.00 0.00 0.00 0.00 0.00 0.00 0.01 0.03 0.03 0.01 0.00 0.01 0.02 0.03 0.03 0.02 0.02 0.01 0.01 0.01 0.01 0.01 0.01 0.00 0.00 0.00 0.00 0.00 0.00 0.00 0.00 0.00 0.00 0.00 0.00 0.00 0.00 0.01 0.01 0.01 0.01
0.01 0.01 0.01 0.02 0.01 0.00 0.01 0.01 0.02 0.02 0.03 0.02 0.01 0.01 0.02 0.03 0.03 0.02 0.02 0.01 0.01 0.01 0.01 0.01 0.00 0.00 0.00 0.00 0.00 0.00 0.00 0.00 0.00 0.00 0.00 0.00 0.00 0.00 0.00 0.00 0.00 0.00 0.01 0.01
0.04 0.06 0.07 0.06 0.03 0.02 0.03 0.03 0.03 0.02 0.02 0.01 0.01 0.02 0.03 0.03 0.02 0.02 0.02 0.01 0.01 0.01 0.01 0.00 0.00 0.00 0.00 0.00 0.00 0.00 0.00 0.00 0.00 0.00 0.00 0.00 0.01 0.01 0.00 0.00 0.00 0.00 0.00 0.00
0.03 0.03 0.04 0.05 0.04 0.04 0.04 0.04 0.04 0.03 0.02 0.02 0.02 0.02 0.02 0.02 0.01 0.01 0.01 0.01 0.01 0.00 0.00 0.00 0.00 0.00 0.00 0.00 0.00 0.00 0.00 0.00 0.00 0.00 0.00 0.00 0.01 0.01 0.02 0.01 0.01 0.00 0.00 0.00
0.03 0.03 0.05 0.06 0.05 0.05 0.05 0.04 0.04 0.04 0.03 0.02 0.02 0.02 0.01 0.01 0.01 0.01 0.00 0.00 0.00 0.00 0.00 0.00 0.00 0.00 0.00 0.00 0.00 0.00 0.00 0.00 0.00 0.00 0.00 0.00 0.00 0.01 0.01 0.02 0.02 0.02 0.01 0.00
0.03 0.05 0.06 0.06 0.05 0.06 0.06 0.05 0.04 0.03 0.02 0.02 0.01 0.01 0.01 0.01 0.01 0.00 0.00 0.00 0.00 0.00 0.00 0.00 0.00 0.00 0.00 0.00 0.00 0.00 0.00 0.00 0.00 0.00 0.00 0.00 0.00 0.00 0.01 0.01 0.01 0.01 0.01 0.00
0.03 0.04 0.05 0.06 0.05 0.05 0.05 0.04 0.03 0.02 0.02 0.01 0.01 0.01 0.01 0.00 0.00 0.00 0.00 0.00 0.00 0.00 0.00 0.00 0.00 0.00 0.00 0.00 0.00 0.00 0.00 0.00 0.00 0.00 0.00 0.00 0.00 0.00 0.00 0.01 0.01 0.01 0.01 0.00
0.05 0.05 0.06 0.06 0.05 0.04 0.03 0.03 0.02 0.01 0.01 0.01 0.01 0.00 0.00 0.00 0.00 0.00 0.00 0.00 0.00 0.00 0.00 0.00 0.00 0.00 0.00 0.00 0.00 0.00 0.00 0.00 0.00 0.00 0.00 0.00 0.00 0.00 0.00 0.01 0.01 0.01 0.01 0.00
0.04 0.04 0.04 0.04 0.03 0.03 0.02 0.01 0.01 0.00 0.00 0.00 0.00 0.00 0.00 0.00 0.00 0.00 0.00 0.00 0.00 0.00 0.00 0.00 0.00 0.00 0.00 0.00 0.00 0.00 0.00 0.00 0.00 0.00 0.00 0.00 0.00 0.00 0.00 0.00 0.00 0.00 0.00 0.00
0.01 0.01 0.01 0.01 0.01 0.01 0.01 0.01 0.00 0.00 0.00 0.00 0.00 0.00 0.00 0.00 0.00 0.00 0.00 0.00 0.00 0.00 0.00 0.00 0.00 0.00 0.00 0.00 0.00 0.00 0.00 0.00 0.00 0.00 0.00 0.00 0.00 0.00 0.00 0.00 0.00 0.00 0.00 0.00
0.00 0.00 0.00 0.00 0.00 0.00 0.00 0.00 0.00 0.00 0.00 0.00 0.00 0.00 0.00 0.00 0.00 0.00 0.00 0.00 0.00 0.00 0.00 0.00 0.00 0.00 0.00 0.00 0.00 0.00 0.00 0.00 0.00 0.00 0.00 0.00 0.00 0.00 0.00 0.00 0.00 0.00 0.00 0.00
0.00 0.00 0.00 0.00 0.00 0.00 0.00 0.00 0.00 0.00 0.00 0.00 0.00 0.00 0.00 0.00 0.00 0.00 0.00 0.00 0.00 0.00 0.00 0.00 0.00 0.00 0.00 0.00 0.00 0.00 0.00 0.00 0.00 0.00 0.00 0.00 0.00 0.00 0.00 0.00 0.00 0.00 0.00 0.00
0.00 0.00 0.00 0.00 0.00 0.00 0.00 0.00 0.00 0.00 0.00 0.00 0.00 0.00 0.00 0.00 0.00 0.00 0.00 0.00 0.00 0.00 0.00 0.00 0.00 0.00 0.00 0.00 0.00 0.00 0.00 0.00 0.00 0.00 0.00 0.00 0.00 0.00 0.00 0.00 0.00 0.00 0.00 0.00
0.01 0.00 0.00 0.00 0.00 0.00 0.00 0.00 0.00 0.00 0.00 0.00 0.00 0.00 0.00 0.00 0.00 0.00 0.00 0.00 0.00 0.00 0.00 0.00 0.00 0.00 0.00 0.00 0.00 0.00 0.00 0.00 0.00 0.00 0.00 0.00 0.00 0.00 0.00 0.00 0.00 0.00 0.00 0.00
0.01 0.00 0.00 0.00 0.00 0.00 0.00 0.00 0.00 0.00 0.00 0.00 0.00 0.00 0.00 0.00 0.00 0.00 0.00 0.00 0.00 0.00 0.00 0.00 0.00 0.00 0.00 0.00 0.00 0.00 0.00 0.00 0.00 0.00 0.00 0.00 0.00 0.00 0.00 0.00 0.00 0.00 0.00 0.00
0.02 0.01 0.00 0.00 0.00 0.00 0.00 0.00 0.00 0.00 0.00 0.00 0.00 0.00 0.00 0.00 0.00 0.00 0.00 0.00 0.00 0.00 0.00 0.00 0.00 0.00 0.00 0.00 0.00 0.00 0.00 0.00 0.00 0.00 0.00 0.00 0.00 0.00 0.00 0.00 0.00 0.00 0.00 0.00
0.05 0.03 0.01 0.01 0.01 0.00 0.00 0.00 0.00 0.00 0.00 0.00 0.00 0.00 0.00 0.00 0.00 0.00 0.00 0.00 0.00 0.00 0.00 0.00 0.00 0.00 0.00 0.00 0.00 0.00 0.00 0.00 0.00 0.00 0.00 0.00 0.00 0.00 0.00 0.00 0.00 0.00 0.00 0.00
0.10 0.08 0.06 0.03 0.02 0.00 0.00 0.00 0.00 0.00 0.00 0.00 0.00 0.00 0.00 0.00 0.00 0.00 0.00 0.00 0.00 0.00 0.00 0.00 0.00 0.00 0.00 0.00 0.00 0.00 0.00 0.00 0.00 0.00 0.00 0.00 0.00 0.00 0.00 0.00 0.00 0.00 0.00 0.00
MSLP
1007.45 1007.11 1006.79 1006.53 1006.37 1006.29 1006.28 1006.32 1006.36 1006.39 1006.41 1006.43 1006.48 1006.61 1006.86 1007.27 1007.86 1008.63 1009.55 1010.59 1011.68 1012.77 1013.80 1014.73 1015.53 1016.19 1016.72 1017.14 1017.45 1017.70 1017.88 1018.01 1018.11 1018.18 1018.22 1018.24 1018.26 1018.28 1018.31 1018.37 1018.47 1018.58 1018.71 1018.84
1008.44 1008.04 1007.60 1007.19 1006.84 1006.59 1006.45 1006.40 1006.44 1006.56 1006.74 1006.98 1007.29 1007.68 1008.15 1008.73 1009.42 1010.20 1011.07 1011.99 1012.93 1013.85 1014.72 1015.50 1016.18 1016.76 1017.24 1017.61 1017.91 1018.13 1018.29 1018.39 1018.46 1018.49 1018.49 1018.49 1018.49 1018.51 1018.56 1018.64 1018.77 1018.92 1019.09 1019.25
1009.31 1008.89 1008.41 1007.90 1007.45 1007.08 1006.84 1006.75 1006.80 1007.00 1007.32 1007.75 1008.27 1008.86 1009.52 1010.24 1011.00 1011.80 1012.61 1013.43 1014.22 1014.98 1015.68 1016.32 1016.88 1017.35 1017.75 1018.07 1018.32 1018.51 1018.64 1018.71 1018.75 1018.75 1018.74 1018.72 1018.72 1018.75 1018.82 1018.93 1019.08 1019.26 1019.45 1019.63
1010.01 1009.61 1009.12 1008.60 1008.10 1007.69 1007.41 1007.31 1007.40 1007.66 1008.09 1008.67 1009.35 1010.11 1010.91 1011.72 1012.54 1013.33 1014.09 1014.80 1015.47 1016.08 1016.63 1017.12 1017.55 1017.92 1018.23 1018.48 1018.67 1018.81 1018.91 1018.96 1018.98 1018.97 1018.96 1018.95 1018.96 1019.01 1019.10 1019.23 1019.39 1019.58 1019.77 1019.93
1010.49 1010.15 1009.70 1009.20 1008.72 1008.32 1008.07 1007.99 1008.12 1008.46 1008.98 1009.66 1010.46 1011.33 1012.22 1013.10 1013.93 1014.71 1015.41 1016.04 1016.59 1017.06 1017.47 1017.83 1018.13 1018.40 1018.61 1018.79 1018.92 1019.03 1019.09 1019.13 1019.15 1019.15 1019.16 1019.18 1019.22 1019.29 1019.40 1019.54 1019.71 1019.88 1020.03 1020.15
1010.77 1010.49 1010.11 1009.68 1009.26 1008.92 1008.73 1008.71 1008.90 1009.29 1009.89 1010.64 1011.51 1012.43 1013.37 1014.28 1015.12 1015.86 1016.51 1017.05 1017.50 1017.86 1018.15 1018.39 1018.59 1018.74 1018.88 1018.99 1019.07 1019.14 1019.20 1019.24 1019.27 1019.31 1019.36 1019.42 1019.51 1019.62 1019.75 1019.90 1020.04 1020.18 1020.28 1020.33
1010.89 1010.67 1010.36 1010.03 1009.70 1009.46 1009.35 1009.40 1009.66 1010.11 1010.75 1011.53 1012.43 1013.37 1014.32 1015.21 1016.03 1016.73 1017.32 1017.79 1018.16 1018.43 1018.62 1018.77 1018.87 1018.95 1019.02 1019.07 1019.12 1019.18 1019.24 1019.30 1019.38 1019.47 1019.58 1019.70 1019.84 1019.99 1020.15 1020.29 1020.42 1020.50 1020.54 1020.50
1010.91 1010.74 1010.52 1010.28 1010.08 1009.94 1009.92 1010.06 1010.38 1010.87 1011.53 1012.32 1013.20 1014.12 1015.03 1015.88 1016.65 1017.30 1017.84 1018.25 1018.54 1018.75 1018.88 1018.96 1019.00 1019.03 1019.05 1019.07 1019.11 1019.16 1019.24 1019.34 1019.47 1019.63 1019.80 1020.00 1020.20 1020.40 1020.58 1020.72 1020.83 1020.87 1020.83 1020.72
1010.90 1010.78 1010.65 1010.52 1010.43 1010.41 1010.49 1010.70 1011.07 1011.58 1012.23 1013.00 1013.83 1014.69 1015.53 1016.32 1017.01 1017.61 1018.08 1018.44 1018.69 1018.86 1018.95 1019.00 1019.01 1019.01 1019.01 1019.03 1019.06 1019.13 1019.24 1019.38 1019.57 1019.79 1020.03 1020.29 1020.55 1020.79 1021.00 1021.15 1021.24 1021.24 1021.16 1020.98
1010.94 1010.88 1010.84 1010.81 1010.83 1010.92 1011.09 1011.37 1011.77 1012.28 1012.90 1013.60 1014.35 1015.12 1015.87 1016.56 1017.18 1017.70 1018.12 1018.44 1018.67 1018.81 1018.90 1018.94 1018.95 1018.95 1018.95 1018.98 1019.03 1019.12 1019.25 1019.43 1019.66 1019.93 1020.23 1020.54 1020.85 1021.13 1021.36 1021.52 1021.60 1021.58 1021.47 1021.25
1011.09 1011.10 1011.15 1011.22 1011.35 1011.53 1011.78 1012.10 1012.51 1013.00 1013.56 1014.17 1014.82 1015.47 1016.10 1016.69 1017.21 1017.66 1018.03 1018.32 1018.54 1018.69 1018.79 1018.85 1018.88 1018.90 1018.93 1018.96 1019.03 1019.13 1019.28 1019.49 1019.74 1020.03 1020.36 1020.70 1021.03 1021.33 1021.58 1021.76 1021.84 1021.83 1021.70 1021.48
1011.38 1011.47 1011.61 1011.79 1012.01 1012.26 1012.57 1012.92 1013.32 1013.76 1014.24 1014.75 1015.27 1015.80 1016.30 1016.77 1017.20 1017.57 1017.90 1018.17 1018.38 1018.55 1018.68 1018.78 1018.85 1018.91 1018.96 1019.01 1019.09 1019.20 1019.35 1019.54 1019.78 1020.07 1020.39 1020.72 1021.06 1021.36 1021.62 1021.81 1021.91 1021.91 1021.81 1021.60
1011.79 1011.97 1012.20 1012.47 1012.77 1013.09 1013.44 1013.79 1014.16 1014.55 1014.94 1015.34 1015.74 1016.12 1016.50 1016.86 1017.19 1017.50 1017.79 1018.04 1018.27 1018.47 1018.64 1018.78 1018.89 1018.99 1019.06 1019.13 1019.21 1019.30 1019.42 1019.58 1019.79 1020.03 1020.31 1020.61 1020.92 1021.21 1021.47 1021.66 1021.78 1021.81 1021.75 1021.60
1012.28 1012.55 1012.87 1013.22 1013.58 1013.95 1014.31 1014.67 1015.00 1015.33 1015.63 1015.92 1016.20 1016.47 1016.73 1016.99 1017.24 1017.50 1017.75 1018.00 1018.24 1018.47 1018.68 1018.86 1019.02 1019.14 1019.24 1019.31 1019.37 1019.44 1019.51 1019.62 1019.76 1019.93 1020.15 1020.40 1020.66 1020.92 1021.16 1021.36 1021.50 1021.57 1021.56 1021.47
1012.77 1013.12 1013.52 1013.93 1014.35 1014.75 1015.12 1015.46 1015.76 1016.02 1016.25 1016.45 1016.64 1016.81 1016.99 1017.17 1017.37 1017.58 1017.81 1018.06 1018.32 1018.57 1018.82 1019.04 1019.22 1019.37 1019.48 1019.54 1019.58 1019.60 1019.62 1019.65 1019.71 1019.81 1019.95 1020.12 1020.33 1020.55 1020.77 1020.97 1021.13 1021.24 1021.28 1021.26
1013.20 1013.62 1014.08 1014.53 1014.98 1015.39 1015.76 1016.08 1016.35 1016.57 1016.75 1016.90 1017.03 1017.14 1017.27 1017.41 1017.57 1017.77 1017.99 1018.24 1018.51 1018.79 1019.05 1019.29 1019.50 1019.65 1019.76 1019.81 1019.81 1019.79 1019.75 1019.71 1019.69 1019.71 1019.77 1019.87 1020.02 1020.20 1020.39 1020.59 1020.77 1020.92 1021.02 1021.06
1013.53 1014.00 1014.48 1014.96 1015.41 1015.83 1016.19 1016.50 1016.75 1016.95 1017.11 1017.24 1017.35 1017.45 1017.56 1017.69 1017.86 1018.05 1018.28 1018.54 1018.82 1019.11 1019.38 1019.63 1019.83 1019.98 1020.07 1020.10 1020.07 1020.00 1019.91 1019.81 1019.72 1019.67 1019.66 1019.71 1019.81 1019.95 1020.13 1020.32 1020.52 1020.69 1020.84 1020.94
1013.75 1014.24 1014.73 1015.20 1015.65 1016.04 1016.40 1016.69 1016.94 1017.15 1017.32 1017.46 1017.60 1017.73 1017.87 1018.03 1018.22 1018.44 1018.69 1018.96 1019.24 1019.53 1019.79 1020.03 1020.21 1020.34 1020.41 1020.41 1020.35 1020.24 1020.11 1019.97 1019.83 1019.73 1019.68 1019.69 1019.75 1019.87 1020.03 1020.22 1020.43 1020.63 1020.80 1020.94
1013.90 1014.38 1014.85 1015.30 1015.71 1016.09 1016.42 1016.71 1016.97 1017.20 1017.41 1017.61 1017.80 1018.00 1018.21 1018.43 1018.67 1018.92 1019.20 1019.48 1019.76 1020.03 1020.27 1020.48 1020.63 1020.73 1020.76 1020.73 1020.65 1020.52 1020.36 1020.19 1020.04 1019.92 1019.84 1019.83 1019.88 1019.98 1020.13 1020.33 1020.53 1020.74 1020.93 1021.09
1014.03 1014.49 1014.92 1015.33 1015.70 1016.04 1016.35 1016.64 1016.91 1017.18 1017.45 1017.72 1017.99 1018.28 1018.57 1018.86 1019.16 1019.47 1019.77 1020.06 1020.33 1020.57 1020.78 1020.95 1021.06 1021.12 1021.12 1021.06 1020.96 1020.82 1020.65 1020.48 1020.33 1020.21 1020.14 1020.12 1020.16 1020.26 1020.41 1020.60 1020.80 1021.01 1021.20 1021.36
1014.22 1014.64 1015.03 1015.38 1015.70 1016.00 1016.28 1016.56 1016.85 1017.16 1017.48 1017.83 1018.19 1018.57 1018.95 1019.32 1019.69 1020.04 1020.36 1020.65 1020.91 1021.12 1021.29 1021.41 1021.48 1021.50 1021.47 1021.39 1021.28 1021.13 1020.98 1020.83 1020.69 1020.59 1020.53 1020.52 1020.57 1020.67 1020.82 1020.99 1021.19 1021.38 1021.55 1021.69
1014.52 1014.90 1015.23 1015.53 1015.79 1016.03 1016.28 1016.55 1016.85 1017.19 1017.56 1017.97 1018.41 1018.87 1019.33 1019.77 1020.19 1020.57 1020.91 1021.20 1021.44 1021.62 1021.75 1021.83 1021.86 1021.85 1021.79 1021.70 1021.59 1021.46 1021.33 1021.20 1021.10 1021.02 1020.99 1021.00 1021.06 1021.16 1021.30 1021.46 1021.64 1021.80 1021.96 1022.07
1014.91 1015.26 1015.55 1015.79 1015.99 1016.19 1016.40 1016.65 1016.94 1017.29 1017.70 1018.15 1018.65 1019.16 1019.67 1020.16 1020.61 1021.02 1021.37 1021.65 1021.87 1022.02 1022.12 1022.17 1022.17 1022.14 1022.08 1022.00 1021.90 1021.80 1021.70 1021.61 1021.54 1021.50 1021.49 1021.52 1021.59 1021.69 1021.82 1021.97 1022.12 1022.26 1022.39 1022.48
1015.38 1015.71 1015.95 1016.15 1016.30 1016.45 1016.62 1016.84 1017.11 1017.46 1017.87 1018.34 1018.86 1019.40 1019.93 1020.45 1020.92 1021.33 1021.67 1021.95 1022.15 1022.29 1022.37 1022.40 1022.40 1022.37 1022.33 1022.27 1022.20 1022.14 1022.08 1022.04 1022.01 1022.01 1022.03 1022.08 1022.15 1022.25 1022.37 1022.50 1022.63 1022.76 1022.86 1022.93
1015.84 1016.16 1016.38 1016.54 1016.65 1016.77 1016.90 1017.08 1017.33 1017.66 1018.05 1018.51 1019.02 1019.56 1020.09 1020.60 1021.06 1021.47 1021.80 1022.07 1022.27 1022.40 1022.49 1022.53 1022.55 1022.55 1022.54 1022.52 1022.51 1022.50 1022.50 1022.51 1022.53 1022.56 1022.61 1022.67 1022.75 1022.85 1022.97 1023.08 1023.20 1023.32 1023.41 1023.47
1016.22 1016.53 1016.74 1016.88 1016.98 1017.06 1017.17 1017.33 1017.55 1017.84 1018.21 1018.64 1019.12 1019.62 1020.13 1020.61 1021.05 1021.44 1021.77 1022.03 1022.23 1022.38 1022.49 1022.57 1022.63 1022.68 1022.73 1022.78 1022.83 1022.89 1022.95 1023.01 1023.08 1023.16 1023.24 1023.32 1023.41 1023.52 1023.63 1023.74 1023.86 1023.97 1024.07 1024.14
1016.43 1016.74 1016.96 1017.10 1017.20 1017.28 1017.38 1017.52 1017.72 1017.99 1018.32 1018.71 1019.15 1019.61 1020.07 1020.52 1020.93 1021.30 1021.62 1021.88 1022.10 1022.28 1022.42 1022.56 1022.68 1022.80 1022.92 1023.05 1023.18 1023.31 1023.44 1023.57 1023.69 1023.81 1023.92 1024.03 1024.14 1024.25 1024.37 1024.49 1024.61 1024.74 1024.85 1024.95
Thickness
5689 5704 5710 5708 5709 5709 5699 5697 5697 5706 5701 5694 5699 5698 5694 5688 5679 5670 5665 5660 5652 5642 5630 5620 5612 5604 5596 5588 5581 5574 5568 5561 5554 5549 5544 5539 5534 5529 5524 5517 5510 5504 5500 5495
5668 5686 5694 5695 5703 5705 5703 5702 5701 5702 5687 5681 5685 5685 5679 5673 5666 5658 5652 5643 5634 5624 5613 5604 5596 5588 5579 5570 5563 5556 5551 5546 5540 5535 5530 5524 5518 5513 5507 5501 5494 5488 5484 5479
5645 5665 5670 5669 5687 5692 5695 5696 5688 5674 5660 5668 5664 5661 5658 5656 5654 5646 5637 5626 5615 5605 5594 5585 5577 5570 5562 5554 5548 5543 5539 5534 5530 5524 5517 5511 5505 5498 5492 5485 5479 5474 5469 5464
5633 5639 5630 5664 5688 5682 5674 5664 5664 5660 5655 5654 5649 5643 5639 5638 5634 5626 5616 5605 5593 5583 5574 5566 5560 5553 5546 5540 5535 5532 5528 5524 5518 5512 5505 5498 5491 5484 5478 5471 5465 5461 5457 5451
5617 5621 5634 5657 5657 5660 5653 5636 5641 5640 5641 5643 5643 5633 5617 5612 5609 5602 5593 5582 5571 5563 5556 5549 5543 5537 5532 5528 5526 5523 5517 5511 5505 5499 5492 5485 5477 5469 5464 5459 5454 5448 5444 5438
5608 5606 5609 5617 5634 5644 5638 5617 5620 5624 5624 5626 5628 5619 5594 5587 5582 5575 5567 5560 5552 5545 5539 5533 5528 5524 5521 5519 5515 5510 5505 5498 5491 5484 5477 5470 5463 5457 5452 5447 5442 5436 5431 5427
5599 5598 5610 5604 5623 5627 5607 5592 5606 5610 5610 5608 5600 5588 5573 5567 5560 5553 5547 5541 5535 5530 5525 5520 5517 5515 5512 5508 5503 5498 5492 5485 5477 5471 5466 5459 5452 5446 5441 5435 5430 5425 5420 5416
5593 5586 5585 5596 5605 5596 5588 5597 5598 5598 5596 5589 5577 5565 5556 5549 5542 5536 5530 5525 5520 5516 5513 5511 5509 5506 5501 5496 5491 5486 5480 5473 5466 5460 5454 5448 5442 5435 5428 5423 5418 5413 5408 5404
5580 5576 5583 5591 5589 5590 5591 5588 5588 5587 5583 5574 5562 5551 5542 5534 5527 5522 5517 5513 5511 5510 5507 5504 5500 5496 5491 5486 5481 5476 5470 5464 5457 5451 5443 5436 5429 5423 5416 5411 5405 5400 5395 5391
5581 5584 5584 5583 5583 5582 5581 5578 5578 5576 5571 5563 5550 5539 5530 5522 5515 5511 5508 5507 5507 5505 5502 5498 5493 5488 5484 5479 5473 5467 5461 5456 5450 5442 5433 5424 5418 5411 5405 5399 5394 5388 5384 5380
5573 5577 5576 5572 5567 5567 5566 5565 5563 5560 5555 5546 5536 5527 5519 5512 5508 5506 5506 5506 5504 5500 5496 5491 5485 5480 5475 5470 5464 5459 5453 5448 5441 5433 5425 5415 5407 5399 5393 5386 5380 5377 5375 5373
5560 5558 5555 5552 5552 5553 5550 5547 5543 5538 5532 5526 5521 5515 5511 5508 5506 5506 5505 5502 5498 5494 5489 5483 5477 5472 5467 5461 5456 5451 5446 5439 5432 5423 5415 5408 5400 5392 5384 5380 5375 5371 5368 5366
5552 5550 5545 5541 5539 5537 5534 5530 5525 5520 5516 5512 5509 5508 5507 5505 5504 5503 5501 5497 5492 5487 5482 5476 5471 5465 5459 5453 5448 5441 5435 5428 5422 5415 5407 5401 5396 5391 5385 5378 5373 5370 5367 5366
5543 5540 5533 5528 5523 5522 5519 5515 5512 5508 5506 5506 5506 5505 5504 5502 5500 5497 5494 5491 5487 5482 5477 5471 5464 5458 5452 5445 5440 5434 5428 5420 5416 5409 5404 5399 5394 5389 5384 5380 5375 5372 5368 5366
5533 5529 5522 5517 5514 5511 5509 5507 5504 5502 5503 5503 5503 5501 5499 5497 5495 5493 5491 5488 5484 5479 5473 5466 5458 5451 5444 5437 5431 5425 5421 5416 5411 5407 5403 5398 5394 5390 5385 5379 5374 5371 5369 5368
5525 5521 5517 5513 5509 5507 5505 5504 5503 5501 5500 5499 5498 5496 5495 5494 5493 5492 5489 5486 5480 5474 5467 5459 5452 5446 5439 5433 5426 5420 5414 5407 5406 5405 5401 5397 5393 5388 5383 5377 5373 5369 5367 5364
5522 5519 5515 5512 5509 5507 5506 5504 5503 5501 5500 5498 5496 5495 5494 5493 5491 5488 5485 5481 5475 5468 5461 5455 5448 5443 5437 5431 5426 5421 5416 5410 5402 5403 5397 5393 5390 5386 5382 5376 5372 5370 5365 5360
5525 5522 5519 5516 5513 5510 5508 5506 5504 5502 5500 5499 5497 5496 5494 5491 5488 5484 5480 5476 5470 5464 5457 5451 5444 5438 5432 5426 5421 5419 5415 5411 5406 5401 5396 5390 5388 5384 5379 5375 5372 5369 5367 5363
5526 5524 5521 5518 5515 5512 5510 5507 5504 5502 5500 5499 5497 5495 5492 5490 5487 5483 5479 5474 5467 5459 5451 5445 5438 5435 5429 5424 5417 5418 5414 5410 5405 5400 5396 5390 5387 5382 5378 5374 5371 5369 5367 5365
5525 5524 5522 5519 5516 5513 5510 5507 5504 5502 5500 5499 5496 5494 5491 5489 5487 5483 5479 5473 5467 5459 5452 5445 5441 5435 5430 5424 5418 5419 5413 5408 5402 5398 5394 5390 5386 5381 5378 5375 5372 5370 5369 5368
5524 5523 5521 5518 5515 5512 5510 5507 5504 5502 5500 5498 5496 5493 5490 5488 5486 5482 5477 5470 5463 5458 5453 5445 5442 5435 5429 5422 5422 5419 5413 5407 5401 5396 5393 5389 5385 5382 5378 5376 5374 5372 5371 5371
5522 5521 5519 5516 5513 5510 5508 5507 5505 5503 5500 5498 5496 5493 5492 5490 5487 5482 5476 5471 5464 5458 5456 5449 5440 5432 5428 5424 5426 5420 5414 5408 5403 5398 5394 5390 5386 5383 5380 5378 5376 5374 5373 5373
5519 5517 5515 5513 5510 5508 5507 5506 5505 5503 5500 5498 5495 5494 5494 5492 5488 5483 5476 5471 5466 5460 5455 5447 5438 5434 5428 5433 5428 5422 5416 5411 5406 5402 5397 5393 5389 5386 5382 5380 5378 5376 5375 5375
5514 5513 5512 5510 5509 5507 5505 5505 5504 5502 5501 5499 5497 5496 5496 5494 5489 5482 5475 5468 5465 5461 5455 5448 5442 5439 5435 5436 5429 5424 5419 5414 5410 5405 5401 5397 5393 5388 5385 5382 5380 5378 5377 5376
5511 5510 5509 5507 5506 5505 5504 5504 5503 5502 5501 5500 5498 5498 5499 5496 5490 5484 5477 5470 5465 5464 5459 5454 5449 5446 5444 5440 5434 5428 5422 5417 5413 5410 5405 5401 5397 5393 5389 5385 5382 5379 5377 5376
5507 5507 5506 5505 5505 5504 5504 5504 5503 5503 5502 5501 5500 5500 5498 5494 5489 5483 5478 5475 5472 5468 5467 5463 5460 5454 5451 5445 5440 5435 5431 5426 5421 5416 5411 5407 5403 5398 5393 5390 5386 5383 5379 5376
5503 5503 5502 5504 5503 5504 5505 5505 5504 5504 5504 5503 5501 5500 5498 5495 5492 5488 5484 5480 5477 5477 5475 5471 5466 5461 5456 5451 5446 5441 5436 5432 5427 5423 5419 5414 5410 5405 5401 5396 5391 5387 5383 5378